Weather History for KBKV - September, 2013

Change the Weather History Date:

Sunday, September 29, 2013

  Actual Average Record
Temperature  
Mean Temperature 76 °F -  
Max Temperature 88 °F 85 °F 91 °F (2002)
Min Temperature 66 °F 66 °F 57 °F (2006)
Cooling Degree Days 12    
Growing Degree Days 26 (Base 50)    
Moisture  
Dew Point 67 °F    
Average Humidity 94    
Maximum Humidity 97    
Minimum Humidity 90    
Precipitation  
Precipitation 0.00 in - - ()
Sea Level Pressure  
Sea Level Pressure 29.98 in    
Wind  
Wind Speed 5 mph (NE)    
Max Wind Speed 9 mph    
Max Gust Speed -    
Visibility 10 miles    
Events      
Averages and records for this station are not official NWS values.
T = Trace of Precipitation, MM = Missing Value Source: NWS Daily Summary

Daily Weather History Graph

Daily Weather History Graph

Search for Another Location

Airport or City:

Trip Planner

Search our weather history database for the weather conditions in past years. The results will help you decide how hot, cold, wet, or windy it might be!

Date:

Astronomy

Sep. 29, 2013 Rise Set
Actual Time 7:21 AM EDT 7:17 PM EDT
Civil Twilight 6:58 AM EDT 7:41 PM EDT
Nautical Twilight 6:31 AM EDT 8:08 PM EDT
Astronomical Twilight 6:03 AM EDT 8:35 PM EDT
Moon 2:24 AM EDT (9/29) 3:53 PM EDT (9/29)
Length of Visible Light 12h 42m
Length of Day
11h 55m
Waning Crescent, 27% of the Moon is Illuminated
Sep 29
Waning Crescent
Oct 4
New
Oct 11
First Quarter
Oct 18
Full
Oct 26
Last Quarter

Hourly Weather History & Observations

Time (EDT) Temp. Dew Point Humidity Pressure Visibility Wind Dir Wind Speed Gust Speed Precip Events Conditions
12:53 AM 71.1 °F 68.0 °F 90% 30.02 in 10.0 mi NE 5.8 mph - N/A   Clear
1:53 AM 70.0 °F 68.0 °F 93% 30.00 in 10.0 mi NNE 5.8 mph - N/A   Clear
2:19 AM 69.8 °F 68.0 °F 94% 30.01 in 10.0 mi NE 4.6 mph - N/A   Scattered Clouds
2:53 AM 69.1 °F 68.0 °F 96% 30.00 in 10.0 mi NNE 4.6 mph - N/A   Mostly Cloudy
3:53 AM 68.0 °F 66.9 °F 96% 29.99 in 10.0 mi NNE 4.6 mph - N/A   Clear
4:27 AM 68.0 °F 66.2 °F 94% 29.99 in 10.0 mi NNE 3.5 mph - N/A   Partly Cloudy
4:53 AM 68.0 °F 66.9 °F 96% 29.99 in 10.0 mi NNE 3.5 mph - N/A   Scattered Clouds
5:29 AM 68.0 °F 66.2 °F 94% 30.00 in 10.0 mi North 4.6 mph - N/A   Overcast
5:53 AM 68.0 °F 66.0 °F 93% 30.00 in 10.0 mi NNE 3.5 mph - N/A   Scattered Clouds
6:53 AM 66.9 °F 66.0 °F 97% 30.01 in 10.0 mi North 4.6 mph - N/A   Mostly Cloudy
7:53 AM 68.0 °F 66.9 °F 96% 30.01 in 10.0 mi NNE 5.8 mph - N/A   Clear
8:53 AM 72.0 °F - N/A% 30.03 in 10.0 mi NE 4.6 mph - N/A   Clear
9:53 AM 75.9 °F - N/A% 30.02 in 10.0 mi NE 4.6 mph - N/A   Partly Cloudy
10:53 AM 80.1 °F - N/A% 30.01 in 10.0 mi NNE 5.8 mph - N/A   Clear
11:53 AM 82.0 °F - N/A% 30.01 in 10.0 mi ENE 6.9 mph - N/A   Clear
12:53 PM 82.9 °F - N/A% 30.00 in 10.0 mi ENE 4.6 mph - N/A   Clear
1:53 PM 86.0 °F - N/A% 29.97 in 10.0 mi Variable 3.5 mph - N/A   Partly Cloudy
2:53 PM 86.0 °F - N/A% 29.95 in 10.0 mi East 5.8 mph - N/A   Partly Cloudy
3:53 PM 87.1 °F - N/A% 29.92 in 10.0 mi Variable 6.9 mph - N/A   Clear
4:53 PM 87.1 °F - N/A% 29.92 in 10.0 mi NNE 8.1 mph - N/A   Clear
5:53 PM 84.9 °F - N/A% 29.92 in 10.0 mi ENE 5.8 mph - N/A   Clear
6:53 PM 82.0 °F - N/A% 29.94 in 10.0 mi ENE 6.9 mph - N/A   Clear
7:37 PM 78.8 °F - N/A% 29.95 in 10.0 mi ENE 9.2 mph - N/A   Partly Cloudy
7:53 PM 78.1 °F - N/A% 29.95 in 10.0 mi ENE 6.9 mph - N/A   Partly Cloudy
8:53 PM 75.9 °F - N/A% 29.96 in 10.0 mi ENE 6.9 mph - 0.00 in   Clear
9:53 PM 73.9 °F - N/A% 29.99 in 10.0 mi ENE 8.1 mph - N/A   Scattered Clouds
10:53 PM 73.0 °F - N/A% 30.00 in 10.0 mi NE 3.5 mph - N/A   Partly Cloudy
11:53 PM 70.0 °F - N/A% 29.99 in 10.0 mi Calm Calm - N/A   Clear